| time (UTC) | temp C | wind direction | speed KPH | gust KPH | rain 1hr cm | rain 24hr cm | rain mn cm | humidity % | barometer mb |
| 20260505091608 | 13 | 163 | 0.0 | 0.0 | 0.00 | 0.03 | 0.03 | 88 | 1007.5 |
| 20260505090633 | 13 | 163 | 0.0 | 0.0 | 0.00 | 0.03 | 0.03 | 87 | 1007.4 |
| 20260505085622 | 13 | 163 | 0.0 | 0.0 | 0.00 | 0.03 | 0.03 | 86 | 1007.4 |
| 20260505084620 | 14 | 163 | 0.0 | 0.0 | 0.00 | 0.03 | 0.03 | 84 | 1007.4 |
| 20260505083625 | 14 | 163 | 0.0 | 0.0 | 0.00 | 0.03 | 0.03 | 84 | 1007.4 |
| 20260505082609 | 14 | 146 | 0.0 | 0.0 | 0.00 | 0.03 | 0.03 | 83 | 1007.4 |
| 20260505081627 | 15 | 144 | 0.0 | 0.0 | 0.00 | 0.03 | 0.03 | 83 | 1007.4 |
| 20260505080648 | 15 | 111 | 0.0 | 0.0 | 0.00 | 0.03 | 0.03 | 80 | 1007.6 |
| 20260505075655 | 16 | 227 | 0.0 | 0.0 | 0.00 | 0.03 | 0.03 | 76 | 1007.7 |
| 20260505074642 | 16 | 227 | 0.0 | 0.0 | 0.00 | 0.03 | 0.03 | 75 | 1007.8 |
| 20260505073611 | 16 | 96 | 0.0 | 0.0 | 0.00 | 0.00 | 0.03 | 71 | 1007.7 |
| 20260505072614 | 17 | 165 | 4.8 | 11.3 | 0.00 | 0.00 | 0.00 | 66 | 1007.9 |
| 20260505071632 | 17 | 210 | 4.8 | 11.3 | 0.00 | 0.00 | 0.00 | 67 | 1007.6 |
| 20260505070627 | 16 | 164 | 1.6 | 6.4 | 0.00 | 0.00 | 0.00 | 69 | 1007.0 |
| 20260505065645 | 16 | 168 | 0.0 | 8.0 | 0.00 | 0.00 | 0.00 | 69 | 1006.8 |
| 20260505064615 | 16 | 171 | 1.6 | 8.0 | 0.00 | 0.00 | 0.00 | 69 | 1006.8 |
| 20260505063635 | 16 | 120 | 0.0 | 4.8 | 0.00 | 0.00 | 0.00 | 69 | 1006.8 |
| 20260505062629 | 16 | 161 | 0.0 | 6.4 | 0.00 | 0.00 | 0.00 | 68 | 1006.9 |
| 20260505061625 | 16 | 165 | 0.0 | 6.4 | 0.00 | 0.00 | 0.00 | 68 | 1006.9 |
| 20260505060559 | 16 | 203 | 0.0 | 1.6 | 0.00 | 0.00 | 0.00 | 67 | 1006.9 |
| 20260505055531 | 17 | 185 | 0.0 | 6.4 | 0.00 | 0.00 | 0.00 | 67 | 1007.1 |
| 20260505054545 | 16 | 191 | 0.0 | 6.4 | 0.00 | 0.00 | 0.00 | 67 | 1007.2 |
| 20260505053537 | 16 | 137 | 0.0 | 0.0 | 0.00 | 0.00 | 0.00 | 68 | 1007.2 |
| 20260505052601 | 16 | 153 | 0.0 | 0.0 | 0.00 | 0.00 | 0.00 | 68 | 1007.2 |
| 20260505051616 | 16 | 154 | 0.0 | 6.4 | 0.00 | 0.00 | 0.00 | 67 | 1007.2 |
| 20260505050556 | 16 | 165 | 0.0 | 3.2 | 0.00 | 0.00 | 0.00 | 68 | 1007.3 |
| 20260505041549 | 16 | 172 | 0.0 | 0.0 | 0.00 | 0.00 | 0.00 | 69 | 1007.1 |
| 20260505040552 | 16 | 192 | 0.0 | 1.6 | 0.00 | 0.00 | 0.00 | 69 | 1007.2 |
| 20260505034433 | 16 | 101 | 0.0 | 0.0 | 0.00 | 0.00 | 0.00 | 67 | 1007.1 |
| 20260505033419 | 17 | 142 | 0.0 | 0.0 | 0.00 | 0.00 | 0.00 | 65 | 1007.2 |
| 20260505032439 | 17 | 171 | 0.0 | 1.6 | 0.00 | 0.00 | 0.00 | 65 | 1007.2 |
| 20260505031442 | 17 | 165 | 0.0 | 1.6 | 0.00 | 0.00 | 0.00 | 64 | 1007.3 |
| 20260505025410 | 17 | 165 | 0.0 | 0.0 | 0.00 | 0.00 | 0.00 | 63 | 1007.4 |
| 20260505024346 | 17 | 201 | 0.0 | 3.2 | 0.00 | 0.00 | 0.00 | 63 | 1007.3 |
| 20260505023350 | 18 | 107 | 0.0 | 3.2 | 0.00 | 0.00 | 0.00 | 62 | 1007.4 |
| 20260505022324 | 18 | 175 | 0.0 | 1.6 | 0.00 | 0.00 | 0.00 | 62 | 1007.4 |
| 20260505021346 | 18 | 118 | 0.0 | 1.6 | 0.00 | 0.00 | 0.00 | 60 | 1007.5 |
| 20260505020409 | 18 | 139 | 1.6 | 4.8 | 0.00 | 0.00 | 0.00 | 60 | 1007.5 |
| 20260505014311 | 19 | 156 | 3.2 | 11.3 | 0.00 | 0.00 | 0.00 | 58 | 1007.6 |
| 20260505013318 | 19 | 144 | 3.2 | 9.7 | 0.00 | 0.00 | 0.00 | 58 | 1007.5 |
| 20260505011159 | 20 | 165 | 3.2 | 16.1 | 0.00 | 0.00 | 0.00 | 57 | 1007.2 |
| 20260505005042 | 20 | 148 | 3.2 | 14.5 | 0.00 | 0.00 | 0.00 | 56 | 1007.0 |
| 20260505004012 | 20 | 137 | 3.2 | 9.7 | 0.00 | 0.00 | 0.00 | 55 | 1006.9 |
| 20260505002942 | 20 | 133 | 3.2 | 11.3 | 0.00 | 0.00 | 0.00 | 55 | 1006.6 |
| 20260505001911 | 20 | 180 | 3.2 | 11.3 | 0.00 | 0.00 | 0.00 | 54 | 1006.8 |
| 20260505000907 | 20 | 151 | 4.8 | 16.1 | 0.00 | 0.00 | 0.00 | 54 | 1006.9 |
| 20260504235906 | 21 | 177 | 6.4 | 19.3 | 0.00 | 0.00 | 0.00 | 53 | 1006.8 |
| 20260504234901 | 21 | 153 | 8.0 | 19.3 | 0.00 | 0.00 | 0.00 | 53 | 1006.8 |
| 20260504233906 | 21 | 178 | 4.8 | 17.7 | 0.00 | 0.00 | 0.00 | 53 | 1006.6 |
| 20260504232841 | 21 | 178 | 9.7 | 22.5 | 0.00 | 0.00 | 0.00 | 52 | 1006.7 |
| 20260504231820 | 21 | 164 | 11.3 | 25.7 | 0.00 | 0.00 | 0.00 | 52 | 1007.0 |
| 20260504230812 | 21 | 171 | 11.3 | 25.7 | 0.00 | 0.00 | 0.00 | 51 | 1006.7 |
| 20260504225745 | 22 | 171 | 8.0 | 37.0 | 0.00 | 0.00 | 0.00 | 50 | 1006.7 |
| 20260504224743 | 22 | 191 | 12.9 | 37.0 | 0.00 | 0.00 | 0.00 | 49 | 1006.8 |
| 20260504223803 | 22 | 219 | 8.0 | 25.7 | 0.00 | 0.00 | 0.00 | 50 | 1006.9 |
| 20260504220538 | 22 | 167 | 11.3 | 25.7 | 0.00 | 0.00 | 0.00 | 49 | 1006.6 |
| 20260504215551 | 22 | 148 | 8.0 | 20.9 | 0.00 | 0.00 | 0.00 | 49 | 1006.6 |
| 20260504214534 | 22 | 168 | 6.4 | 29.0 | 0.00 | 0.00 | 0.00 | 50 | 1006.5 |
| 20260504213544 | 22 | 172 | 11.3 | 29.0 | 0.00 | 0.00 | 0.00 | 49 | 1006.5 |
| 20260504212553 | 22 | 215 | 9.7 | 20.9 | 0.00 | 0.00 | 0.00 | 48 | 1006.6 |
| 20260504211608 | 22 | 168 | 8.0 | 17.7 | 0.00 | 0.00 | 0.00 | 49 | 1006.6 |
| 20260504210535 | 22 | 175 | 8.0 | 20.9 | 0.00 | 0.00 | 0.00 | 48 | 1006.6 |
| 20260504205500 | 22 | 178 | 12.9 | 27.4 | 0.00 | 0.00 | 0.00 | 47 | 1006.6 |
| 20260504204434 | 22 | 125 | 14.5 | 32.2 | 0.00 | 0.00 | 0.00 | 47 | 1006.6 |
| 20260504203434 | 23 | 163 | 11.3 | 35.4 | 0.00 | 0.00 | 0.00 | 45 | 1006.7 |
| 20260504202421 | 22 | 168 | 14.5 | 35.4 | 0.00 | 0.00 | 0.00 | 47 | 1006.7 |
| 20260504201350 | 22 | 195 | 9.7 | 27.4 | 0.00 | 0.00 | 0.00 | 47 | 1006.7 |
| 20260504195252 | 22 | 188 | 11.3 | 27.4 | 0.00 | 0.00 | 0.00 | 50 | 1006.8 |
| 20260504194311 | 21 | 164 | 11.3 | 29.0 | 0.00 | 0.00 | 0.00 | 50 | 1006.9 |
| 20260504193308 | 22 | 191 | 14.5 | 29.0 | 0.00 | 0.00 | 0.00 | 48 | 1006.9 |
| 20260504192256 | 22 | 205 | 11.3 | 27.4 | 0.00 | 0.00 | 0.00 | 50 | 1007.0 |
| 20260504190109 | 22 | 63 | 12.9 | 30.6 | 0.00 | 0.00 | 0.00 | 49 | 1007.1 |
| 20260504185047 | 22 | 179 | 11.3 | 30.6 | 0.00 | 0.00 | 0.00 | 49 | 1007.2 |
| 20260504184047 | 22 | 178 | 11.3 | 29.0 | 0.00 | 0.00 | 0.00 | 49 | 1007.4 |
| 20260504183022 | 22 | 139 | 14.5 | 29.0 | 0.00 | 0.00 | 0.00 | 49 | 1007.6 |
| 20260504180931 | 21 | 185 | 11.3 | 27.4 | 0.00 | 0.00 | 0.00 | 48 | 1007.8 |
| 20260504175900 | 21 | 144 | 9.7 | 22.5 | 0.00 | 0.00 | 0.00 | 49 | 1007.9 |
| 20260504174852 | 21 | 179 | 4.8 | 25.7 | 0.00 | 0.00 | 0.00 | 50 | 1007.9 |
| 20260504173900 | 21 | 153 | 6.4 | 25.7 | 0.00 | 0.00 | 0.00 | 51 | 1008.1 |
| 20260504172835 | 20 | 164 | 9.7 | 19.3 | 0.00 | 0.00 | 0.00 | 49 | 1008.2 |
| 20260504170729 | 21 | 112 | 9.7 | 24.1 | 0.00 | 0.00 | 0.00 | 48 | 1008.3 |
| 20260504160411 | 20 | 156 | 8.0 | 20.9 | 0.00 | 0.00 | 0.00 | 50 | 1009.4 |
| 20260504150522 | 18 | 177 | 11.3 | 25.7 | 0.00 | 0.00 | 0.00 | 50 | 1010.2 |
| 20260504130231 | 14 | 224 | 4.8 | 19.3 | 0.00 | 0.00 | 0.00 | 59 | 1010.7 |
| 20260504120104 | 11 | 158 | 3.2 | 16.1 | 0.00 | 0.00 | 0.00 | 64 | 1010.6 |